Location: Balsareny
(41.8670°N, 1.8830°E)
Time: 04:29:56
(UTC+01:00)

N. Korean satellite - Pass Details

Date: 08 December 2021
Orbit: 447 x 491 km, 97.3° (Epoch: 23 January)

Event Time Altitude Azimuth Distance (km) Brightness Sun altitude
Rises 05:30:07 0° 24° (NNE) 2,457 10.4 -28.5°
Reaches altitude 10° 05:32:24 10° 38° (NE) 1,579 9.5 -28.0°
Maximum altitude 05:35:15 25° 96° (E) 947 8.7 -27.5°
Drops below altitude 10° 05:38:05 10° 154° (SSE) 1,571 9.5 -27.0°
Sets 05:40:20 0° 167° (SSE) 2,442 10.4 -26.6°
